Temp
20 20 20 20 20 20 20 20 20 20 21 20 20 20 19 19 20 18 17 19 19 19 17 11 9 10 9 9 9 8 10 11 11 10 9 10 11 12 11 11 11 11 10 11 11 11 12 13 13 13 12 11 10 5 2 3 4 7 9 8 6 7 8 9 11 11 12 12 10 8 8 9 11 10 8 8 8 8 8 7 6 6 6 6 5 6 6
20 20 20 20 20 20 20 20 20 21 21 21 21 21 19 17 17 17 17 19 21 20 18 14 12 11 10 11 10 9 9 11 11 11 10 10 11 12 12 11 11 11 9 10 12 12 13 13 12 11 12 10 6 3 2 3 5 7 8 7 7 8 10 10 11 11 11 12 11 10 10 10 11 10 7 6 6 5 5 5 4 5 6 6 4 5 6
20 20 20 20 20 20 20 20 21 21 21 22 21 18 17 17 17 17 17 16 16 15 13 13 14 12 13 13 12 11 11 9 9 10 10 9 9 12 12 10 10 10 9 10 11 11 12 14 12 10 11 10 5 2 3 3 4 4 3 3 5 8 9 10 11 11 10 10 10 11 11 10 10 9 6 4 4 3 4 4 3 4 5 4 3 4 5
21 21 20 21 21 21 21 21 21 22 21 22 21 17 16 19 19 19 18 14 12 10 8 11 14 14 14 14 12 12 13 11 8 9 10 9 9 10 11 9 10 10 10 11 12 11 11 11 11 11 12 11 6 3 3 3 3 2 1 1 4 7 8 9 11 11 11 11 11 11 10 9 9 7 4 3 3 2 3 2 2 3 3 3 4 5 4
21 21 21 21 21 21 21 21 21 22 21 22 21 15 15 19 17 16 18 17 15 13 10 11 13 13 13 14 12 12 13 12 11 11 11 10 9 10 10 9 10 11 11 12 13 12 10 9 11 11 10 10 7 3 2 3 2 2 2 2 4 8 9 8 9 10 11 11 10 10 9 7 6 4 2 2 2 2 2 1 1 3 2 2 4 4 3
22 22 21 22 21 21 21 21 22 22 21 22 21 16 14 17 15 12 13 16 16 15 13 11 12 12 11 11 11 12 13 12 13 12 11 10 10 11 12 10 10 9 9 11 13 12 12 12 12 11 8 8 8 6 5 4 2 2 4 3 4 8 9 7 6 8 9 9 8 8 7 5 4 2 2 2 2 2 2 1 2 2 2 2 3 4 3
22 22 22 22 22 22 21 22 22 22 21 21 21 17 13 14 14 10 10 13 13 11 10 11 13 12 11 11 11 12 13 12 10 9 11 13 11 11 14 13 10 8 7 10 12 12 12 13 12 10 9 8 9 10 9 6 3 4 6 5 3 7 9 6 4 6 7 7 7 7 7 5 2 1 2 2 2 2 2 1 2 2 2 2 3 3 3
22 22 22 22 22 22 21 22 22 21 22 22 20 16 14 15 16 13 12 12 10 8 9 12 15 13 11 12 12 10 12 13 10 8 11 14 13 11 13 12 9 8 7 9 12 11 11 12 11 9 9 8 8 9 9 7 5 5 7 5 4 7 9 6 4 6 8 9 9 8 7 5 2 1 2 2 2 2 2 2 2 2 2 2 3 2 2
23 23 23 23 23 23 22 23 22 22 23 22 18 14 13 14 14 14 16 14 10 10 10 11 15 15 12 12 12 11 12 12 10 10 9 11 12 11 11 11 8 7 8 9 11 10 9 10 10 8 8 8 8 8 7 6 6 7 6 5 5 7 8 6 5 7 8 9 9 8 6 4 1 0 1 1 2 2 1 2 2 1 1 2 2 1 1
23 23 23 23 23 24 23 24 24 23 23 22 18 13 13 14 13 12 16 15 9 9 11 11 14 14 11 10 10 11 12 9 9 12 11 8 10 9 8 9 9 10 12 12 11 9 7 8 6 5 5 4 4 5 4 3 5 6 5 4 4 5 6 7 6 6 8 9 8 7 6 6 4 1 1 1 1 1 1 2 2 2 2 1 1 0 1
23 23 24 24 24 24 24 24 24 24 24 23 20 15 14 17 17 13 16 17 11 7 10 13 14 12 10 9 9 10 11 9 9 12 13 10 9 7 7 8 9 12 13 9 5 2 2 1 0 -0 1 2 2 3 2 2 3 4 5 5 3 3 5 5 4 6 8 8 7 7 7 7 5 2 1 2 1 1 1 1 1 2 3 2 1 1 1
24 24 24 24 24 24 24 24 24 24 24 25 23 18 16 18 17 15 18 19 12 8 11 12 9 9 9 8 10 11 11 10 9 9 11 12 9 6 6 7 10 12 8 3 1 0 0 1 2 1 1 0 0 0 1 2 3 2 3 5 5 5 5 4 3 5 7 7 5 6 6 5 3 2 2 2 2 2 1 1 2 3 3 2 1 1 1
23 23 24 24 24 24 24 24 24 24 24 25 24 20 18 18 16 14 16 17 12 10 12 10 5 6 8 8 10 11 9 8 7 6 8 11 10 9 8 8 10 9 4 2 3 5 7 9 10 9 7 4 3 3 3 4 3 2 2 3 4 5 5 4 4 4 6 6 5 4 4 3 1 2 3 2 2 2 1 1 2 3 2 1 0 0 0
23 23 23 23 23 24 24 23 24 24 23 25 24 21 19 19 17 14 14 16 12 7 8 11 9 8 9 9 10 10 9 8 8 8 8 8 9 11 10 7 7 4 1 3 6 8 11 13 12 12 11 10 10 10 9 6 3 1 2 2 2 4 4 5 5 4 4 5 4 4 5 3 1 1 2 2 1 2 1 -0 1 2 1 0 -0 -0 -0
23 23 23 23 23 23 23 23 23 23 23 24 24 22 20 19 19 17 13 14 13 9 7 11 12 10 10 9 9 11 12 11 11 10 9 6 8 10 7 4 3 2 2 6 9 10 12 12 11 12 12 11 12 11 11 10 5 1 1 1 1 3 4 4 5 4 4 4 3 3 3 3 2 1 2 2 2 2 2 0 0 1 1 0 -0 -1 -1
23 22 22 22 22 22 22 22 22 22 22 23 23 22 20 18 19 18 13 11 15 14 9 6 6 8 10 9 7 10 12 12 12 12 12 11 11 10 6 1 1 2 4 7 9 10 12 11 10 11 11 11 11 10 10 11 8 4 2 1 2 3 3 3 4 4 3 3 2 2 3 3 2 1 2 3 2 2 2 -1 -1 1 1 -0 -0 -1 -1
22 22 22 22 22 22 22 22 22 22 22 22 23 22 20 17 18 19 15 11 12 11 6 3 4 7 10 11 9 9 9 9 9 11 14 13 11 10 8 4 2 4 7 10 10 10 11 11 9 10 10 9 9 10 9 9 8 7 5 4 4 4 3 3 3 2 2 2 2 2 3 3 1 2 2 2 2 2 -0 -3 -2 -0 0 -0 -1 -1 -1
21 22 22 22 22 22 21 21 22 22 22 22 23 22 19 17 18 18 15 11 11 10 4 2 4 7 9 10 9 8 8 8 9 11 12 11 9 9 9 8 7 8 8 9 11 10 10 10 8 9 10 8 7 9 9 8 8 8 6 5 5 3 1 1 2 1 2 2 1 2 3 2 2 2 2 2 2 0 -2 -4 -2 -0 -0 -1 -1 -1 -2
21 21 21 21 21 21 21 21 21 22 22 22 23 21 17 16 18 18 15 11 11 10 5 1 4 6 4 4 7 7 6 6 9 11 13 13 10 7 6 6 8 9 8 9 10 8 9 9 7 6 9 9 8 8 8 7 6 6 5 5 3 1 0 0 1 1 1 2 1 1 2 3 3 2 3 2 -0 -2 -3 -1 0 -0 -1 -1 -1 -1 -1
20 21 21 21 21 21 21 21 20 21 21 22 23 20 16 16 18 18 17 11 7 7 4 2 3 4 2 3 7 8 7 8 9 10 13 13 9 7 9 10 9 9 9 10 9 7 8 9 7 5 8 9 8 8 8 6 5 4 4 3 2 1 0 0 1 1 1 1 1 -0 1 3 3 2 1 1 -1 -2 -1 0 -0 -1 -1 -1 -1 -1 -2
20 20 20 21 21 20 21 20 20 21 20 21 23 20 16 16 17 17 17 14 9 8 7 4 3 3 2 3 4 5 6 8 8 8 11 10 6 8 12 12 9 9 9 8 9 8 7 8 7 6 7 7 7 7 7 6 5 3 3 2 1 1 0 -0 0 0 -0 -1 -0 0 1 3 3 1 -0 -0 -0 0 0 -1 -1 -1 -1 -2 -2 -2 -2
20 20 20 20 20 20 20 20 19 20 19 20 23 20 15 14 15 15 17 15 9 6 6 4 3 4 3 3 3 3 3 4 4 4 7 8 7 7 10 10 8 7 7 7 8 8 7 7 7 7 7 7 7 7 6 5 5 3 2 2 2 1 1 0 -0 0 0 -1 -0 1 2 2 2 1 0 -0 0 0 -0 -1 -2 -2 -2 -2 -2 -2 -2
19 19 19 20 20 19 20 19 19 20 19 19 21 19 15 13 14 16 17 12 6 4 5 4 4 5 4 3 4 3 3 3 3 3 3 7 8 7 7 8 7 6 5 6 8 8 7 7 6 6 7 6 5 6 5 4 4 2 1 1 2 2 2 1 0 1 1 1 2 2 1 1 1 0 0 0 -0 -0 -1 -1 -2 -2 -2 -2 -2 -3 -2
19 19 19 19 19 19 19 19 19 19 18 18 20 18 15 14 14 15 15 11 7 8 8 5 5 7 6 5 4 4 3 3 4 3 2 5 8 8 7 6 5 5 6 5 4 5 6 6 4 5 7 6 5 6 6 4 2 1 1 1 1 1 1 1 0 0 -0 -0 1 1 1 0 0 -0 0 -0 -1 -1 -1 -2 -2 -2 -2 -2 -3 -3 -2
18 18 18 18 18 18 18 18 18 18 17 17 18 17 16 15 14 15 15 13 11 11 11 9 8 7 6 5 5 4 4 3 4 5 4 3 5 7 7 5 4 5 6 4 3 5 6 6 5 6 6 5 4 5 5 3 2 1 0 -0 -0 0 1 0 -0 -0 -1 -1 1 1 0 0 -0 -1 -1 -1 -1 -1 -2 -2 -2 -2 -3 -3 -3 -3 -3
18 18 17 17 17 17 17 17 17 17 17 17 17 17 16 14 13 14 15 13 10 10 10 10 9 7 6 6 5 4 4 4 4 5 5 4 4 4 5 4 3 4 4 2 2 4 6 5 5 6 6 5 4 4 4 3 2 1 0 1 1 1 1 0 -0 -1 -1 -1 0 -0 -1 -1 -1 -1 -1 -1 -1 -2 -2 -2 -2 -3 -3 -3 -3 -3 -3
17 17 16 16 16 16 16 17 17 16 16 17 17 17 15 14 13 14 14 13 13 13 12 10 8 7 7 6 5 5 4 4 5 5 5 5 4 4 4 4 3 4 4 3 2 3 5 6 5 5 5 4 3 2 2 1 1 1 0 1 1 0 0 -0 -1 -2 -2 -2 -1 -1 -2 -2 -2 -1 -1 -1 -2 -2 -3 -2 -3 -3 -3 -3 -3 -3 -3
17 16 16 16 15 15 16 16 16 16 16 16 16 16 15 14 13 13 13 13 14 13 11 9 7 7 8 7 6 5 5 4 4 5 5 5 4 4 3 3 2 3 5 5 4 5 5 6 5 4 4 4 3 2 1 0 1 1 0 1 1 0 0 -0 -1 -2 -2 -1 -1 -1 -2 -2 -2 -1 -2 -2 -2 -2 -3 -3 -3 -3 -3 -3 -4 -4 -4
16 16 16 16 16 16 16 16 16 16 16 16 16 16 15 13 12 12 12 13 12 10 8 8 8 8 8 8 6 6 6 5 5 5 5 5 4 4 3 2 1 1 3 4 5 6 5 4 4 3 3 4 4 2 1 0 1 1 1 1 1 1 1 0 -0 -1 -1 -1 -1 -1 -2 -2 -2 -2 -2 -2 -2 -3 -3 -3 -3 -3 -3 -3 -4 -4 -4
15 15 16 16 16 17 17 17 17 16 16 16 16 15 15 14 13 13 12 13 13 12 10 10 10 8 6 6 6 6 6 6 5 5 5 4 4 3 2 2 1 1 2 3 4 5 4 4 4 4 3 3 3 2 1 -0 0 1 2 2 1 1 0 0 -0 -1 -1 -1 -1 -1 -2 -2 -2 -2 -2 -2 -3 -3 -3 -4 -4 -4 -4 -4 -4 -4 -4
14 14 15 15 16 16 16 17 17 16 16 16 15 15 15 14 13 13 12 13 14 12 10 9 9 8 7 6 7 7 6 6 6 5 4 4 3 2 2 3 2 2 4 4 3 3 4 4 4 4 3 3 2 2 0 -0 -0 0 1 1 0 -0 -0 -1 -1 -1 -2 -2 -2 -2 -2 -2 -2 -3 -3 -3 -3 -3 -4 -4 -4 -4 -4 -4 -4 -4 -5
14 14 14 14 15 15 15 15 15 16 16 14 13 12 11 11 11 12 12 13 14 12 11 11 10 9 9 8 7 6 6 6 6 5 4 4 3 3 3 3 2 2 3 4 4 4 3 3 4 4 2 1 1 1 0 -0 0 0 0 0 -0 -1 -1 -1 -2 -2 -2 -2 -2 -3 -3 -3 -3 -3 -3 -3 -3 -4 -4 -4 -4 -4 -4 -5 -5 -5 -5
14 14 13 14 14 14 15 14 14 15 15 13 11 10 9 10 11 12 13 14 13 10 10 11 11 10 9 8 7 6 7 6 5 5 5 4 3 3 4 3 2 2 3 4 4 4 2 2 4 4 1 -1 0 1 1 0 0 0 0 -0 -1 -1 -1 -2 -2 -2 -2 -2 -3 -3 -4 -4 -3 -3 -3 -4 -4 -4 -4 -4 -5 -5 -5 -5 -6 -6 -6
14 13 14 14 13 14 14 14 14 14 13 12 11 10 10 11 12 12 13 14 12 10 9 9 10 11 10 9 8 7 6 6 6 6 6 5 3 4 5 4 3 4 4 4 3 3 3 3 4 4 2 -1 -0 1 1 1 1 0 -0 -1 -1 -1 -2 -2 -2 -2 -2 -3 -3 -3 -3 -3 -4 -4 -4 -4 -4 -4 -5 -5 -5 -6 -6 -7 -7 -7 -7
14 14 14 13 13 14 14 14 14 13 12 11 10 10 10 11 12 12 14 14 13 12 9 6 7 9 10 10 10 8 6 5 5 4 4 5 4 3 4 5 5 5 4 3 3 4 3 3 3 3 1 0 0 1 1 1 0 -1 -1 -1 -1 -2 -2 -3 -2 -2 -3 -3 -3 -3 -3 -3 -4 -4 -4 -4 -5 -5 -5 -5 -6 -6 -7 -8 -7 -7 -7
14 14 14 13 14 14 13 13 13 12 11 11 11 11 11 11 11 12 13 13 12 11 8 5 5 6 7 9 9 6 5 6 5 2 3 5 4 2 3 6 6 4 2 3 4 4 2 1 2 2 1 0 1 2 1 0 -0 -1 -1 -1 -2 -2 -2 -3 -3 -3 -3 -3 -3 -4 -4 -4 -4 -5 -5 -5 -5 -5 -5 -6 -7 -7 -8 -8 -8 -8 -8
14 14 14 13 13 13 12 11 11 11 10 11 11 11 12 12 12 12 11 10 9 8 6 6 6 4 3 5 5 5 5 5 4 3 4 5 4 3 3 5 6 4 3 4 5 3 2 1 2 3 2 1 1 2 1 1 0 -1 -2 -2 -2 -2 -2 -3 -3 -3 -3 -4 -4 -4 -4 -5 -5 -5 -5 -6 -6 -6 -6 -7 -7 -8 -8 -8 -8 -8 -8
14 14 14 13 13 12 12 11 10 11 11 11 12 12 11 10 11 11 8 7 7 5 3 4 5 2 1 3 4 4 5 4 3 4 4 3 3 4 4 4 4 3 4 4 3 1 2 1 0 1 1 1 1 1 1 0 -1 -2 -2 -2 -2 -3 -3 -3 -3 -4 -4 -5 -5 -5 -5 -5 -5 -6 -6 -6 -7 -7 -7 -8 -8 -8 -8 -8 -9 -9 -9
15 14 14 13 12 11 11 11 10 11 12 11 12 12 10 8 10 11 7 5 6 5 3 3 4 2 2 4 5 4 3 3 3 4 4 3 4 5 4 4 3 3 4 5 2 1 3 2 -1 -1 1 1 0 1 1 -0 -2 -2 -2 -2 -2 -3 -3 -3 -3 -4 -4 -5 -5 -5 -5 -6 -6 -7 -7 -7 -7 -7 -8 -8 -9 -9 -9 -9 -9 -9 -9
14 13 13 12 11 10 11 11 11 12 12 11 11 11 9 8 8 8 7 7 7 5 3 3 2 -0 -0 2 3 3 2 3 3 3 3 3 3 3 3 4 3 2 4 5 2 1 3 3 -0 -1 1 1 0 0 0 -1 -2 -2 -2 -2 -2 -3 -3 -3 -4 -4 -4 -5 -5 -5 -5 -6 -7 -7 -7 -8 -8 -8 -9 -9 -9 -9 -10 -9 -9 -10 -10
14 13 12 12 11 11 11 11 11 11 10 10 10 10 9 8 5 3 5 9 9 4 1 1 2 1 0 1 2 2 2 2 1 0 2 2 2 2 3 3 1 2 5 4 1 1 3 2 0 0 1 0 -0 -0 -1 -2 -2 -2 -2 -3 -3 -3 -3 -4 -4 -4 -5 -5 -5 -6 -6 -7 -7 -8 -8 -8 -9 -9 -10 -10 -10 -10 -10 -10 -10 -10 -11
13 13 12 11 11 11 11 11 11 10 10 11 11 9 7 6 6 5 6 7 6 3 2 2 2 3 2 0 0 1 1 0 -0 0 2 2 1 2 2 2 1 4 6 2 -1 1 3 3 2 2 0 -0 -0 -1 -2 -2 -2 -3 -3 -3 -3 -3 -4 -4 -4 -5 -5 -5 -6 -6 -7 -7 -8 -8 -8 -9 -10 -10 -10 -10 -11 -11 -11 -11 -11 -11 -12
13 12 12 12 12 11 11 11 10 9 10 11 12 10 9 7 6 6 6 4 1 1 2 1 1 1 2 1 0 1 1 0 0 1 2 2 1 1 2 3 3 4 3 0 0 3 4 4 3 2 -0 -1 -0 -1 -2 -2 -3 -3 -3 -3 -3 -4 -4 -4 -5 -5 -5 -6 -6 -7 -7 -8 -8 -8 -9 -9 -10 -10 -10 -11 -11 -11 -11 -11 -12 -12 -13
12 11 11 12 11 11 12 12 10 10 11 11 10 11 12 10 7 6 7 5 3 2 1 0 -0 1 2 0 -0 1 1 0 0 1 1 1 0 1 3 4 3 2 1 1 2 3 2 1 1 0 -1 -1 -1 -2 -2 -3 -3 -4 -3 -3 -4 -4 -4 -5 -5 -5 -6 -6 -6 -7 -8 -8 -8 -9 -9 -10 -10 -11 -11 -11 -11 -11 -11 -12 -12 -13 -13
13 12 13 13 12 10 12 13 11 10 11 10 8 9 10 9 8 8 6 3 2 1 0 -1 -1 0 1 -0 -1 -0 -0 -0 1 1 1 0 1 2 2 2 1 -0 1 2 3 2 2 1 0 -1 -1 -1 -2 -2 -3 -3 -4 -4 -4 -4 -4 -4 -5 -5 -6 -6 -6 -7 -7 -8 -8 -9 -9 -10 -10 -10 -10 -11 -11 -11 -11 -11 -12 -12 -13 -13 -14
11 9 11 15 13 9 10 12 12 11 9 7 6 7 8 7 7 5 1 -2 -0 1 0 -2 -2 -1 0 0 -0 -0 -1 -0 1 1 -1 0 3 3 0 -1 0 1 2 3 3 4 4 2 -1 -1 -1 -1 -2 -3 -4 -4 -4 -4 -4 -5 -4 -5 -5 -6 -6 -6 -7 -7 -8 -8 -9 -9 -10 -10 -10 -11 -11 -11 -11 -11 -12 -12 -12 -13 -14 -14 -14
10 6 9 14 13 9 9 10 8 5 3 2 2 2 1 0 1 -0 -3 -4 -2 -2 -3 -4 -4 -2 -2 -1 -1 0 -1 -1 1 1 -1 0 2 1 -1 0 2 2 2 4 5 4 2 0 -1 -1 -1 -2 -3 -3 -4 -4 -4 -4 -5 -5 -5 -5 -6 -6 -6 -7 -7 -8 -8 -9 -9 -10 -10 -11 -11 -11 -11 -11 -11 -12 -12 -12 -13 -14 -14 -15 -15
10 8 10 13 12 10 9 7 2 -1 -2 -2 -3 -4 -5 -3 0 0 -3 -5 -4 -3 -2 -2 -1 -1 -1 -2 -1 -0 -1 -1 1 1 -1 -1 2 2 2 4 3 1 0 2 4 2 1 -0 -1 -1 -2 -3 -4 -4 -4 -4 -4 -4 -5 -5 -5 -6 -6 -6 -7 -7 -7 -8 -9 -9 -10 -10 -11 -11 -11 -12 -12 -12 -12 -12 -12 -13 -14 -14 -15 -15 -15
8 7 8 7 6 5 3 1 2 2 0 -3 -5 -5 -4 -1 3 1 -3 -5 -4 -3 -3 -3 -2 0 0 -1 -1 0 0 0 1 1 -1 0 3 3 2 4 5 3 1 1 1 0 0 -0 -1 -2 -3 -4 -5 -5 -5 -4 -4 -5 -5 -6 -6 -6 -7 -7 -8 -8 -8 -9 -9 -10 -10 -11 -11 -11 -12 -12 -12 -12 -12 -12 -13 -14 -14 -15 -15 -15 -15
6 7 6 5 6 5 2 0 4 6 3 -1 -1 -1 -1 1 3 1 -3 -4 -4 -3 -3 -3 -1 -0 -1 -1 0 2 1 -1 -1 1 2 3 2 0 0 3 5 4 2 0 -1 -0 -0 -1 -2 -2 -3 -4 -5 -5 -5 -4 -4 -5 -6 -6 -6 -7 -7 -7 -8 -8 -9 -9 -10 -10 -11 -11 -11 -12 -12 -12 -12 -13 -13 -13 -14 -14 -15 -15 -16 -16 -15
6 6 4 2 4 6 4 4 7 8 5 4 4 2 0 2 4 1 -3 -3 -3 -1 1 1 -1 -1 0 2 3 3 1 -2 -3 -0 1 0 -2 -1 2 5 4 2 1 1 -0 -0 -1 -2 -4 -3 -3 -4 -5 -5 -4 -4 -5 -5 -6 -6 -6 -7 -8 -8 -8 -9 -9 -10 -10 -10 -11 -11 -11 -12 -12 -12 -13 -13 -14 -14 -14 -15 -15 -16 -16 -16 -16
7 7 3 -0 -1 1 3 4 5 5 4 3 2 -0 -0 2 2 -2 -3 -2 0 1 1 -0 -1 1 3 3 1 0 0 -0 -1 0 1 -0 -2 -0 3 4 2 0 0 0 -1 -1 -2 -4 -5 -4 -4 -5 -5 -4 -4 -5 -5 -6 -6 -6 -7 -8 -8 -8 -9 -9 -10 -10 -11 -11 -11 -11 -12 -12 -12 -13 -13 -14 -14 -15 -15 -15 -16 -16 -16 -16 -16
Height
818 818 819 819 820 820 820 820 820 820 820 820 819 820 824 829 834 832 829 827 824 826 847 872 878 878 884 887 888 889 886 885 885 887 888 886 883 882 883 885 886 885 887 886 884 882 878 874 873 874 876 876 880 891 899 897 893 888 881 884 889 886 885 878 860 853 849 842 847 857 857 852 847 851 858 859 861 862 863 861 861 860 851 849 855 841 831
819 819 820 821 821 821 821 821 821 821 821 820 819 822 829 835 835 834 830 825 823 830 850 867 875 882 884 882 885 889 888 887 886 886 887 887 885 881 882 886 884 885 891 888 883 881 876 873 876 878 876 880 890 898 900 896 892 888 885 888 889 881 878 875 864 859 855 846 846 848 847 848 845 850 865 870 872 875 872 869 875 870 855 856 865 847 828
819 820 821 821 822 822 822 822 822 822 821 821 821 824 830 834 835 838 835 829 831 846 861 865 870 878 878 878 885 886 886 891 890 888 889 892 892 885 883 888 888 889 892 888 885 885 878 873 879 883 879 881 893 900 899 898 896 896 898 900 893 883 881 878 870 870 873 868 863 854 849 852 848 854 875 884 882 885 880 878 883 877 865 867 869 852 833
820 821 822 822 823 823 823 823 823 822 822 822 821 824 830 834 839 844 844 842 847 863 874 870 867 873 873 876 886 886 883 889 893 891 889 891 893 889 888 891 889 888 888 884 881 883 885 884 881 880 877 877 890 901 900 899 900 900 903 902 896 891 889 883 872 869 871 869 863 856 858 862 858 866 885 890 888 890 888 890 892 886 879 873 861 850 842
822 823 824 824 824 824 824 824 824 823 824 823 822 828 834 838 849 856 852 851 857 864 874 874 871 874 875 877 886 888 885 887 889 888 889 891 892 890 891 893 889 886 887 884 879 879 885 888 882 880 883 883 890 900 901 899 900 901 902 901 897 888 881 883 882 871 864 864 863 861 865 872 876 885 893 891 891 892 892 897 895 887 883 872 855 850 847
824 825 825 825 825 825 825 824 824 823 824 823 823 832 839 843 856 866 859 857 864 867 872 877 877 878 881 886 891 888 887 889 887 887 889 890 891 887 886 890 893 895 895 887 881 880 878 877 877 881 889 890 887 889 895 899 901 901 898 898 899 887 876 886 891 878 871 873 871 869 873 881 890 897 895 892 893 892 892 895 891 885 884 874 857 851 847
826 826 826 826 826 826 826 825 824 823 824 824 823 832 845 849 856 866 864 865 875 880 881 881 876 878 883 887 891 890 888 891 895 897 891 885 889 888 881 885 893 899 901 893 885 885 880 876 879 884 889 891 886 882 885 893 900 898 892 896 901 888 877 891 899 886 877 874 871 871 873 881 895 901 896 894 893 890 891 890 885 883 881 871 858 850 846
827 827 827 827 826 826 826 825 826 825 824 825 825 832 843 846 849 859 863 869 881 886 886 880 873 879 886 885 891 896 891 890 896 900 893 882 886 891 885 887 894 898 901 895 886 886 886 882 884 890 891 892 891 886 885 890 895 894 891 896 899 885 878 892 899 886 870 862 863 867 868 879 898 902 895 893 891 888 888 887 883 882 877 867 858 853 849
829 829 828 828 828 827 827 826 826 827 826 826 830 836 842 843 846 850 853 869 885 884 885 885 875 878 887 887 891 894 890 892 895 895 896 892 888 892 891 891 897 900 899 893 885 887 890 887 887 891 892 892 892 890 892 896 895 892 895 898 896 890 885 890 894 885 868 856 857 864 871 882 897 902 898 896 893 890 888 885 882 881 875 865 860 859 855
832 832 830 831 830 829 830 829 828 829 828 827 831 840 844 844 848 849 849 867 888 887 886 887 879 882 893 894 895 893 891 899 899 889 893 899 895 895 898 896 896 892 887 885 886 889 892 891 892 895 896 898 900 897 899 902 898 896 900 902 903 902 893 890 895 888 869 858 860 866 869 870 881 898 903 898 895 893 887 883 880 877 871 867 865 863 855
835 835 834 834 833 832 832 832 831 832 831 830 833 839 843 842 845 850 850 863 888 895 888 882 881 888 897 897 897 897 894 899 899 890 888 894 897 899 901 900 895 886 883 887 892 894 896 896 899 902 901 900 901 901 903 904 904 902 900 899 905 909 900 898 903 892 872 867 871 868 863 862 876 896 900 895 895 894 886 881 878 871 865 865 864 859 851
838 838 837 836 836 835 835 834 834 834 833 833 834 837 842 842 842 848 852 861 885 895 887 888 896 897 898 899 896 894 894 896 899 898 893 891 897 902 901 900 894 886 888 894 895 894 894 893 894 897 901 905 906 907 906 903 903 906 904 899 899 902 900 902 907 898 880 875 881 877 870 875 888 895 892 891 892 889 883 877 873 868 864 863 863 858 852
841 840 839 839 838 838 838 837 837 837 837 837 836 837 842 843 843 850 856 865 885 895 888 895 908 905 901 901 897 894 899 902 903 905 900 894 895 897 897 897 893 890 893 896 894 890 884 880 879 881 888 896 898 899 900 900 902 905 907 905 901 899 901 903 905 902 888 882 892 892 883 888 898 894 889 891 890 886 884 876 868 867 866 865 864 859 853
843 843 842 842 842 841 841 841 840 840 840 839 838 839 842 843 844 850 855 864 887 905 900 894 899 901 900 900 898 897 900 901 900 901 900 899 896 893 893 896 894 894 896 893 890 887 879 875 876 876 877 879 878 879 884 893 904 907 905 907 907 904 904 902 901 904 900 896 897 892 883 887 897 896 893 895 891 889 889 880 866 864 867 867 864 858 852
846 846 845 844 845 844 844 844 843 843 843 842 840 841 843 844 845 847 852 862 881 901 904 895 893 897 898 900 901 897 893 894 896 896 899 903 898 892 893 897 895 895 896 892 888 886 882 880 882 881 879 878 879 880 878 882 896 908 910 910 910 908 907 906 903 905 908 906 902 898 891 888 894 898 895 893 889 886 887 882 869 862 865 867 863 856 850
849 849 848 847 847 847 847 847 846 845 845 845 843 843 844 846 847 847 852 860 870 885 898 903 903 901 899 900 903 899 893 894 895 892 892 893 893 892 894 896 895 895 894 891 890 888 883 884 889 889 886 886 888 887 883 881 888 900 909 911 909 909 911 910 908 909 912 913 912 908 898 890 894 899 892 887 887 882 881 884 875 864 864 865 861 855 849
853 852 851 850 850 850 850 849 849 848 848 847 846 845 846 849 850 850 853 861 873 890 903 906 905 903 898 897 900 901 900 901 900 895 890 889 893 894 893 893 895 894 892 889 890 890 887 890 896 894 893 897 896 889 889 893 891 893 900 904 904 908 912 912 915 919 918 917 915 907 895 891 895 894 889 887 883 878 885 890 877 864 863 863 859 855 849
856 855 854 854 853 853 853 852 851 851 850 849 848 847 848 851 851 851 854 862 876 895 907 906 903 902 899 897 899 902 903 903 901 897 894 894 897 896 894 895 894 891 891 890 890 893 893 896 903 900 895 900 902 894 892 898 898 897 901 903 906 916 923 921 921 923 920 918 917 906 894 892 894 889 886 886 882 885 898 896 877 865 865 863 859 855 849
859 858 857 857 856 855 855 854 853 852 852 851 850 850 851 854 854 853 856 864 875 890 903 906 904 903 903 903 903 903 904 903 900 896 892 891 896 899 901 901 896 893 895 893 895 901 899 898 910 914 902 897 902 900 899 904 909 909 910 912 917 927 933 929 925 924 921 916 917 911 896 888 889 888 886 887 893 899 899 887 874 870 868 863 858 853 848
862 861 861 859 859 858 857 856 856 855 854 853 852 852 854 856 856 854 856 866 880 895 905 906 904 904 904 903 901 900 901 901 901 899 894 893 898 900 896 895 896 897 898 894 897 906 903 898 909 916 906 901 904 904 904 911 919 921 919 922 929 933 935 932 927 926 924 918 920 922 906 888 887 892 892 893 900 900 889 877 874 873 868 863 858 850 845
865 864 864 862 862 861 860 859 859 857 857 856 853 853 856 858 858 857 857 860 871 889 902 904 904 904 903 903 903 902 901 900 900 901 899 899 902 898 892 895 901 901 902 901 900 906 908 906 910 912 908 908 909 906 907 912 919 925 926 928 933 937 939 941 936 931 932 931 928 923 907 892 893 900 899 896 895 891 884 878 874 869 866 864 857 848 843
867 867 867 865 865 865 863 862 862 860 860 860 856 854 858 862 862 862 862 862 870 887 900 904 904 904 903 903 904 903 903 903 903 903 902 901 903 901 898 902 904 904 907 907 903 905 909 910 911 910 910 912 911 910 915 915 916 925 930 931 933 934 937 943 940 932 931 931 922 913 904 898 899 901 897 893 888 885 883 879 872 866 864 861 855 848 841
870 869 869 868 868 867 866 865 865 863 862 863 859 857 860 865 867 865 864 868 879 893 902 903 903 904 905 905 905 904 905 904 903 904 904 901 902 904 904 905 905 907 910 908 904 906 908 909 912 913 912 916 916 915 920 922 925 933 936 934 935 934 932 937 936 929 924 916 907 906 906 903 900 898 894 889 884 881 879 875 869 864 858 855 853 847 837
873 872 872 871 870 870 869 868 867 866 865 865 863 861 862 866 868 868 868 874 883 892 900 904 905 905 906 907 906 906 906 905 904 905 906 904 902 903 906 907 907 907 909 909 909 911 910 912 918 915 911 916 919 916 917 924 932 938 938 936 937 934 932 934 933 931 927 914 901 901 905 902 899 895 891 886 881 877 874 870 864 859 852 848 847 843 835
875 874 874 873 873 873 871 871 870 869 868 868 867 866 866 868 870 869 869 875 881 886 895 903 907 908 909 909 908 907 907 907 906 905 906 907 906 904 905 908 908 907 908 909 910 911 910 912 917 915 912 917 920 918 921 927 932 937 941 942 941 935 932 933 931 931 930 918 905 900 898 896 895 891 885 881 876 871 868 865 860 855 849 841 837 834 832
878 877 876 876 876 875 874 874 873 872 871 871 870 869 869 870 872 872 871 874 880 886 895 904 908 909 909 909 909 910 909 908 908 907 907 907 907 907 907 908 908 908 909 910 911 912 912 913 916 916 916 918 919 922 926 930 933 938 941 942 940 936 932 931 930 929 925 917 907 901 893 886 886 886 882 879 875 871 866 862 857 852 846 838 830 824 823
880 879 879 879 879 878 878 877 876 875 875 874 873 872 872 872 874 875 873 874 877 884 894 904 909 910 910 911 912 912 911 910 909 908 908 907 907 907 907 907 908 908 910 911 912 914 915 915 916 918 920 922 924 928 933 934 936 940 942 940 939 938 935 933 932 931 927 919 914 911 903 892 887 886 883 879 876 873 868 861 856 851 845 839 831 820 814
883 882 882 881 881 881 881 880 879 878 877 876 875 875 874 875 876 877 876 876 875 880 891 903 909 910 910 912 913 912 911 911 910 909 908 908 908 908 908 908 908 910 911 911 912 914 915 914 917 921 923 922 925 931 937 938 938 940 941 940 939 940 938 936 936 934 928 920 916 916 912 902 892 888 886 881 876 874 870 863 858 852 846 840 834 824 814
885 885 884 884 883 882 881 881 880 879 878 878 878 877 876 879 881 880 879 879 877 882 893 903 908 910 911 913 914 914 912 911 910 910 910 909 909 909 909 909 910 911 913 914 914 915 917 918 921 923 922 920 923 931 938 942 942 940 939 939 938 939 938 937 936 932 925 918 915 914 912 904 894 888 886 882 877 873 868 862 856 850 845 840 832 825 817
888 887 887 886 885 884 883 881 880 879 879 879 879 879 879 883 885 884 884 885 884 886 893 900 905 911 914 915 914 913 912 911 911 910 910 910 911 911 911 911 912 912 914 915 915 917 920 921 922 923 922 921 925 933 942 947 946 941 937 937 937 937 936 935 934 931 925 918 913 910 908 903 895 888 883 880 876 870 864 858 853 847 842 837 830 823 817
890 889 889 888 887 886 884 882 880 879 879 879 880 882 884 888 889 888 888 889 887 888 894 901 908 913 914 914 914 913 911 911 911 911 911 911 912 912 912 912 913 913 914 916 917 919 921 921 921 923 924 924 927 935 943 947 946 942 938 937 937 936 935 933 931 928 924 918 913 908 904 899 893 887 881 876 873 869 862 856 850 844 838 833 829 823 817
892 892 891 891 890 888 887 886 884 881 880 881 883 887 891 893 893 892 891 891 890 891 894 900 907 912 913 913 914 914 912 911 911 911 912 913 912 912 913 912 913 914 915 916 918 919 922 923 923 925 926 926 930 937 943 944 943 941 937 935 934 934 932 930 927 924 921 918 914 908 901 895 892 888 882 875 870 867 861 854 848 842 835 829 825 820 816
894 894 893 892 893 892 890 889 888 885 885 886 889 892 895 895 894 894 893 892 892 893 895 900 907 912 913 912 914 913 912 912 913 912 912 913 913 913 913 913 914 914 914 915 918 919 922 924 923 924 927 930 933 937 940 941 940 938 935 933 932 931 928 927 924 921 918 915 912 909 902 894 890 886 882 875 869 864 859 852 846 839 832 825 821 816 811
895 896 895 894 895 894 893 893 892 890 890 891 893 895 896 895 895 895 894 893 894 896 900 905 909 910 910 911 913 914 913 914 915 915 913 912 913 913 912 913 914 914 914 916 919 920 922 923 922 923 929 934 936 936 937 937 937 935 934 932 929 926 923 920 917 915 914 910 906 904 900 893 886 882 877 872 866 861 855 849 843 838 831 824 819 814 808
897 896 896 896 896 896 896 896 894 893 894 895 897 899 899 897 897 896 893 893 895 899 907 915 916 914 912 911 911 913 916 917 918 919 917 914 913 914 914 912 912 914 916 917 919 921 922 923 923 925 931 936 937 937 937 936 936 935 933 930 927 924 920 916 911 909 908 906 901 897 894 889 883 877 872 867 862 857 853 848 843 838 832 825 818 813 807
898 897 897 897 897 897 897 897 896 896 898 899 900 901 900 899 900 899 897 896 896 901 911 921 926 926 924 919 916 918 918 918 920 921 919 915 914 915 915 912 912 917 920 920 919 921 923 924 923 927 934 936 935 935 937 936 935 935 932 929 928 925 921 918 914 908 904 902 898 893 889 884 878 873 869 865 861 856 853 849 844 839 834 827 820 814 807
898 897 897 897 897 898 898 899 900 900 900 901 902 901 901 901 901 900 899 900 902 907 914 920 927 934 935 930 928 925 921 920 923 922 919 918 918 918 918 915 915 919 921 919 920 922 923 924 925 927 932 934 934 935 937 936 935 935 933 929 927 925 921 918 915 910 904 899 894 890 887 883 877 873 869 865 861 857 854 851 847 843 836 829 823 816 810
898 898 898 897 898 899 900 901 902 901 901 902 902 900 901 903 902 903 907 909 910 915 921 924 930 938 939 934 930 926 923 926 928 924 921 922 920 918 918 919 919 920 920 920 924 925 925 929 934 934 933 934 935 935 935 936 935 934 932 929 927 924 921 917 914 911 908 902 896 893 890 887 881 876 872 867 863 858 855 852 849 844 838 830 824 818 811
898 898 898 897 899 901 902 902 902 902 902 902 901 901 905 906 904 908 916 919 918 922 928 930 934 939 938 934 931 928 927 929 929 926 925 924 919 917 920 921 921 922 920 919 923 924 922 929 939 939 934 934 936 934 934 935 934 931 930 928 925 923 921 918 915 913 910 906 902 899 895 891 886 881 876 871 865 859 854 851 847 843 838 831 825 819 812
899 899 899 900 902 903 902 902 902 902 902 903 902 904 909 912 913 918 922 921 922 928 933 933 937 940 939 936 934 932 930 929 928 929 929 926 924 924 924 922 923 924 920 919 924 924 921 926 938 939 934 934 936 934 932 932 931 929 927 926 923 920 919 916 913 911 908 905 901 898 895 891 887 881 876 872 866 859 853 849 845 842 837 832 825 820 814
900 900 900 901 903 903 903 904 903 903 904 904 905 910 915 918 925 932 928 920 922 932 938 937 937 938 938 938 937 934 931 931 932 933 931 929 928 926 923 924 928 925 917 919 927 928 923 926 934 935 932 932 933 932 930 930 928 925 923 922 919 917 915 912 909 907 904 900 896 893 890 887 883 878 874 871 866 860 853 848 842 838 834 829 825 820 816
901 901 902 903 904 903 904 904 903 904 905 904 907 918 928 928 927 930 928 925 930 937 939 938 937 937 937 938 937 935 933 932 933 933 931 928 928 927 926 929 928 918 912 921 931 928 921 921 924 927 931 932 931 929 928 927 925 923 921 918 916 914 911 909 905 902 900 898 894 891 888 884 880 876 871 868 865 859 852 846 840 834 829 825 822 819 814
903 903 903 903 903 904 904 905 906 909 911 910 908 914 923 928 930 933 933 935 940 941 938 938 939 937 936 936 937 936 934 933 933 934 932 929 930 931 929 926 921 916 919 928 929 921 915 916 918 924 930 930 928 927 927 924 923 922 919 917 915 912 909 907 904 900 898 895 892 888 885 881 877 873 869 865 862 857 850 844 839 833 827 822 818 815 812
903 904 903 904 906 906 904 905 908 909 912 916 916 913 913 920 929 933 931 931 937 941 941 942 942 939 937 938 938 936 935 934 934 933 932 932 934 933 925 918 919 923 925 924 922 921 922 923 924 927 930 928 926 926 925 922 920 919 916 913 912 909 907 904 901 897 894 891 888 885 881 877 874 870 865 861 858 855 850 844 838 833 827 821 814 811 809
903 905 903 903 907 908 906 907 912 913 913 920 924 922 919 921 925 928 931 935 939 942 943 944 945 942 940 940 938 938 939 938 934 932 934 935 933 930 926 925 929 931 929 924 922 920 919 923 927 928 928 927 926 925 923 921 919 917 913 911 908 906 904 902 899 896 893 889 886 882 879 875 872 868 864 859 856 853 849 844 839 833 828 822 814 808 804
904 909 907 903 908 915 914 911 912 916 922 928 931 929 928 928 929 933 938 942 943 943 943 945 946 944 941 940 939 939 941 939 934 936 941 936 927 926 932 934 931 928 924 920 916 911 911 919 928 928 925 925 925 923 921 920 918 915 913 911 907 905 903 901 898 896 893 889 885 881 878 874 870 867 863 859 855 851 847 843 839 835 830 825 818 810 804
906 913 911 904 909 918 920 918 922 929 935 938 939 938 939 939 939 941 943 944 944 944 945 946 946 944 943 943 941 939 943 943 938 937 940 936 929 932 936 932 927 927 923 913 907 910 918 924 927 925 924 924 924 922 920 918 916 914 913 911 907 905 903 900 898 895 892 888 884 880 876 873 869 865 861 857 853 850 846 842 838 834 830 825 819 812 805
909 912 909 907 913 918 921 926 936 943 945 945 946 947 947 944 941 941 943 945 945 944 943 944 944 943 943 945 943 940 943 942 936 936 942 940 932 928 926 920 921 930 931 920 912 916 923 924 924 923 924 924 922 920 919 917 915 913 912 909 907 905 901 899 897 894 891 888 884 880 876 873 868 864 860 855 851 848 846 841 837 833 829 824 817 810 804
911 912 914 919 927 931 935 938 939 939 942 946 948 948 946 943 940 940 943 945 945 944 944 945 944 941 942 945 944 942 942 941 937 938 942 937 929 928 928 920 914 918 924 924 923 922 922 923 924 923 922 921 920 919 918 916 914 913 912 909 907 905 902 899 897 894 890 887 884 880 875 872 867 863 859 855 849 845 843 841 838 833 829 825 820 813 806
913 915 920 924 926 930 937 939 933 931 938 944 943 942 943 942 939 940 943 944 943 944 944 944 943 943 945 946 941 936 938 943 944 939 932 927 931 938 936 922 912 913 918 924 926 923 921 923 923 921 920 920 919 917 916 915 913 912 911 908 906 905 902 899 897 894 890 887 883 879 875 871 867 863 859 855 850 845 840 838 836 833 828 824 820 814 807
916 919 926 928 926 926 931 932 926 926 932 935 935 938 941 940 938 940 942 943 943 942 941 942 945 946 943 938 933 932 937 945 949 943 935 935 943 942 927 913 913 920 922 921 922 922 921 922 922 920 919 919 917 915 915 914 912 910 909 907 905 903 901 898 896 893 889 885 882 877 873 870 866 863 858 854 849 844 837 832 830 829 824 819 815 811 806
919 920 928 934 935 933 933 932 929 930 933 934 935 938 939 938 938 941 942 941 941 940 941 945 947 943 936 934 937 939 940 941 941 938 933 934 938 934 921 914 919 923 921 920 922 922 921 920 920 918 917 917 915 914 913 912 910 909 908 905 903 901 899 896 894 892 889 885 881 877 873 869 865 861 857 851 846 842 836 830 825 824 821 817 813 808 804
Wind_Speed
11 9 7 5 5 5 5 6 6 6 5 5 6 6 5 4 3 7 16 5 8 13 8 3 6 4 0 1 1 2 2 2 2 2 3 2 1 2 2 0 0 1 1 1 1 1 1 2 1 1 3 3 1 0 1 1 1 2 1 2 2 1 3 2 5 4 6 9 5 2 1 2 1 2 2 2 3 4 4 6 2 4 7 4 3 6 4
10 8 6 5 5 5 6 8 8 9 9 9 9 7 3 3 3 7 18 8 4 6 5 2 4 2 0 3 3 4 2 2 3 2 2 2 1 2 1 1 1 0 1 1 0 2 1 2 2 0 2 2 0 1 1 1 1 2 1 1 2 2 1 2 4 6 8 8 7 5 3 2 2 2 4 6 7 8 5 4 3 1 6 6 5 8 6
10 9 8 8 8 8 8 7 6 7 6 5 7 6 4 4 1 4 17 21 12 5 4 6 5 3 3 5 4 4 2 1 1 1 1 1 2 1 1 1 1 1 1 2 2 2 1 1 2 2 1 3 1 2 2 2 2 2 2 2 1 1 1 2 3 4 7 7 7 8 6 6 5 3 7 8 9 10 6 4 3 2 6 9 7 9 9
14 13 12 11 10 8 8 7 7 8 7 5 7 8 4 4 4 2 9 15 11 4 1 4 6 4 4 4 3 3 3 1 2 2 1 1 1 2 2 1 2 2 3 4 3 2 1 1 2 2 3 4 2 2 2 2 2 1 3 3 2 2 1 2 5 4 5 6 9 9 5 7 9 8 9 8 7 8 5 3 3 5 7 7 8 12 14
15 14 13 10 9 8 8 7 5 5 6 6 8 9 5 3 3 1 1 4 5 5 5 5 4 3 4 3 1 2 2 3 2 1 1 0 1 2 2 3 3 2 4 4 3 4 3 2 2 1 3 4 3 2 1 2 3 2 1 1 3 4 2 3 5 7 9 8 11 13 9 6 6 8 9 8 8 8 8 6 5 9 7 6 11 18 18
12 10 9 8 8 7 6 6 4 2 3 3 5 6 5 3 3 2 1 2 2 3 3 4 6 5 4 3 2 2 3 3 2 2 2 2 1 1 2 4 3 1 1 2 2 6 6 4 3 1 2 4 4 4 2 1 3 2 1 2 3 4 2 3 3 6 10 10 12 13 8 2 4 7 8 9 9 8 9 7 8 9 8 11 18 22 20
11 9 8 7 7 6 6 8 9 9 6 4 7 6 3 4 4 0 2 4 3 1 2 3 7 7 5 4 3 3 3 3 1 2 2 4 3 2 2 5 5 2 2 2 1 2 2 4 5 1 2 4 3 4 2 1 2 2 2 3 2 3 2 3 2 5 11 11 10 7 3 1 5 7 7 7 7 7 8 8 10 12 13 16 21 24 19
17 15 13 11 10 8 7 7 8 10 8 7 10 8 2 3 4 1 4 5 2 2 3 3 5 5 4 3 2 2 2 1 1 1 1 1 4 4 2 5 6 2 3 3 1 4 5 4 6 2 2 4 1 1 2 2 4 4 3 2 2 2 3 1 3 5 11 9 5 3 1 4 5 7 9 10 11 12 11 11 12 13 15 18 20 20 14
23 22 20 18 16 14 11 10 9 9 9 10 9 6 5 6 5 6 7 4 4 3 3 3 5 3 3 2 1 0 1 2 1 1 2 2 1 1 1 5 5 2 1 3 6 7 7 8 9 6 3 3 3 2 1 1 4 6 3 2 3 3 3 2 5 5 10 9 9 12 5 7 7 9 12 13 13 13 12 11 12 13 17 20 16 11 9
26 26 26 24 22 21 17 14 13 12 13 13 9 4 6 8 6 5 7 4 3 3 3 3 4 2 2 1 2 1 1 2 1 1 1 2 3 4 4 2 2 2 4 4 5 5 6 6 5 3 2 2 1 2 2 2 1 2 1 1 2 2 1 3 4 3 9 11 13 13 6 2 2 4 8 11 13 14 15 13 12 15 15 14 10 7 11
29 29 29 28 26 25 22 18 15 12 12 14 13 9 7 6 5 4 7 6 3 3 3 4 4 1 1 1 1 0 1 0 1 2 0 2 2 2 4 2 1 3 4 3 1 1 2 1 2 3 3 2 1 1 1 1 2 3 2 0 1 3 3 1 0 1 8 12 12 11 8 6 3 3 4 10 12 14 18 16 15 18 15 10 9 12 18
32 31 31 31 30 28 26 23 19 16 15 15 17 15 9 7 6 5 7 6 2 4 4 3 1 1 1 1 1 1 2 1 1 0 1 2 1 1 3 3 1 3 3 1 1 1 3 3 3 3 4 3 1 2 3 1 4 3 3 2 0 3 3 1 1 1 5 7 8 10 9 4 2 5 3 11 12 14 20 20 18 19 16 11 14 20 23
32 33 32 32 31 30 28 25 22 20 15 13 17 18 12 9 9 6 6 7 1 3 3 2 2 1 1 1 1 0 1 2 3 2 2 2 2 2 2 3 2 2 2 3 4 2 2 3 3 2 2 3 3 3 2 1 2 1 2 3 2 2 2 1 1 1 3 5 7 8 6 1 2 3 4 11 14 14 17 19 17 13 11 12 19 22 21
32 31 31 30 30 29 28 26 23 21 16 13 17 18 13 9 8 4 5 7 2 2 2 3 2 2 1 0 1 3 4 4 4 2 1 1 2 5 5 3 2 3 3 3 4 4 2 2 5 4 5 5 6 3 1 1 1 0 2 3 2 3 2 2 2 1 2 5 6 7 5 2 0 3 5 9 12 11 13 18 16 9 8 14 19 21 22
30 29 29 28 27 27 26 24 22 20 17 16 17 17 14 9 8 7 7 7 4 0 1 1 2 2 1 1 1 2 4 4 2 2 2 1 3 6 4 2 1 3 3 2 3 4 3 3 4 4 4 5 4 3 2 2 1 2 2 1 3 3 1 1 2 1 2 4 7 7 7 6 2 3 7 10 12 14 16 17 13 8 11 16 19 21 24
29 28 27 26 25 25 23 22 20 19 16 15 16 19 18 15 12 13 12 8 6 3 1 2 4 4 3 1 1 2 1 1 1 3 5 4 4 5 3 1 1 2 3 4 3 3 4 4 2 2 2 2 2 4 3 3 3 3 3 5 6 5 2 4 3 2 3 4 6 6 6 4 2 5 10 13 15 17 16 13 9 8 15 18 20 23 24
27 27 26 26 25 23 21 20 19 18 17 15 16 18 19 14 11 12 12 7 5 3 1 3 4 3 3 2 1 1 2 1 1 1 2 4 4 5 4 2 1 1 3 5 4 3 5 3 2 2 2 3 1 3 3 3 5 5 3 5 6 6 4 4 5 3 4 5 6 5 3 2 3 8 13 15 17 17 15 11 9 12 17 19 19 22 23
26 26 25 25 25 23 22 19 17 17 16 15 17 20 20 14 9 8 9 7 5 3 2 2 3 2 1 2 1 1 1 1 1 0 2 3 2 3 4 3 3 3 2 4 3 3 4 2 2 2 2 3 1 2 3 3 4 5 5 4 3 4 3 2 2 3 6 5 5 6 4 2 6 14 17 16 16 13 11 10 11 15 19 18 18 21 21
26 25 25 25 25 24 23 21 19 17 15 13 13 17 18 14 11 12 13 8 4 3 1 2 1 1 1 1 2 1 1 2 1 2 2 3 2 0 2 2 1 2 2 4 3 2 3 1 1 3 1 4 2 1 2 3 3 4 6 4 3 4 4 2 2 4 5 4 5 8 5 1 9 18 17 13 12 10 8 10 13 15 18 17 18 20 19
25 25 25 25 25 24 23 23 21 19 17 13 12 18 19 13 7 8 11 10 6 4 2 2 1 3 2 2 2 1 1 2 2 3 3 1 2 3 5 3 2 2 3 3 3 1 1 1 2 1 1 3 2 1 1 3 2 3 3 2 2 2 3 3 3 3 4 4 5 6 6 6 14 17 13 8 8 9 10 12 13 13 15 16 17 18 17
24 24 24 24 24 24 23 23 21 19 18 13 14 21 24 19 14 11 17 23 16 4 0 2 4 8 8 7 6 4 3 3 2 1 2 3 3 4 4 2 2 1 1 1 2 1 0 1 1 1 0 2 1 1 1 2 2 2 1 2 2 1 1 2 4 1 1 3 3 5 10 12 12 11 9 9 10 10 11 13 12 12 12 12 14 18 20
24 23 23 23 23 23 23 22 20 19 17 14 15 22 25 25 25 22 24 29 24 10 7 10 10 12 13 11 11 9 6 3 2 2 2 1 3 2 3 2 2 1 1 2 2 2 1 1 1 1 1 1 1 2 2 2 1 3 3 4 1 1 3 1 5 2 1 5 8 9 12 11 9 9 11 14 14 13 13 14 13 12 11 10 13 20 24
23 23 22 21 21 21 21 21 19 19 17 14 15 21 26 25 24 24 27 30 25 14 11 11 9 9 10 10 10 11 10 7 2 2 3 2 2 1 2 2 1 1 0 1 1 1 2 1 1 2 0 1 0 2 3 2 1 3 3 2 2 2 1 0 3 4 7 9 10 10 9 10 13 14 13 14 15 13 12 13 12 12 12 11 12 19 25
23 23 22 21 20 19 19 19 18 18 18 16 16 22 28 27 25 27 26 21 12 6 5 5 4 4 5 7 8 9 11 11 6 1 2 2 2 2 2 1 1 1 1 0 1 2 2 1 1 2 0 2 1 2 1 1 1 1 2 3 3 2 1 1 1 4 9 10 11 13 12 12 14 14 12 14 15 14 13 13 13 14 16 15 14 16 21
23 23 22 21 19 18 17 17 16 16 16 15 15 19 23 20 16 15 15 10 5 5 5 3 3 2 3 5 6 7 9 11 9 5 3 1 1 2 1 1 2 2 1 1 3 4 3 1 2 3 1 1 0 1 0 1 1 1 2 3 4 3 3 4 5 6 8 11 15 19 18 14 13 12 12 13 15 17 17 17 17 20 21 22 23 20 16
22 22 21 20 18 17 16 16 17 17 16 14 13 14 17 17 12 11 16 16 10 6 5 2 1 1 3 5 7 7 9 10 10 9 6 3 2 3 4 4 3 3 4 4 4 4 3 2 2 3 2 0 1 1 1 1 1 2 2 2 4 5 5 7 9 8 8 10 15 21 22 18 15 15 17 17 17 19 20 20 21 23 22 24 29 31 25
21 20 19 17 15 14 15 16 18 20 19 18 17 16 17 16 12 10 13 12 6 3 3 2 2 1 3 6 8 11 11 10 9 10 9 6 5 4 4 5 4 3 4 5 3 3 3 3 2 2 2 0 2 3 2 2 3 2 1 2 3 5 7 8 9 9 8 11 14 17 17 16 14 17 20 20 19 18 19 20 21 22 22 23 28 35 36
19 19 18 16 13 10 8 10 14 20 22 22 22 23 24 22 16 9 4 2 2 4 5 3 1 2 3 4 8 13 14 10 9 10 9 7 8 7 6 6 4 3 4 3 2 3 3 3 1 1 1 1 2 3 2 2 3 2 1 1 1 4 6 7 8 9 11 14 14 12 11 13 16 18 18 20 21 18 18 21 21 20 23 27 28 30 32
18 18 17 16 14 12 8 4 5 9 13 15 16 20 23 23 21 18 13 11 15 15 7 2 3 3 2 2 5 12 15 11 9 9 9 9 10 9 9 8 6 4 3 3 3 3 2 1 1 1 0 1 2 2 2 2 2 1 2 2 2 3 5 6 8 11 14 16 15 12 11 14 18 20 18 20 23 20 16 19 21 21 26 32 31 29 28
17 17 17 16 16 15 14 10 4 3 6 6 6 9 11 12 14 17 15 14 15 13 6 3 3 1 2 2 4 13 16 10 7 9 10 11 11 9 9 8 6 5 4 3 3 3 1 0 1 1 3 2 3 3 2 1 0 2 4 4 5 5 5 6 7 10 13 15 15 15 14 14 18 21 20 22 29 28 21 21 25 27 31 34 32 30 33
15 16 16 16 17 17 17 16 13 5 5 6 2 3 4 3 7 12 11 9 9 9 6 4 2 1 2 1 4 13 15 9 6 7 7 8 9 8 7 6 5 4 4 2 1 2 1 1 2 2 3 4 5 4 3 2 0 4 5 5 6 6 6 7 8 10 13 15 15 16 16 14 15 18 17 21 32 34 27 25 30 35 36 35 32 30 32
13 13 14 15 16 18 19 20 20 16 14 14 13 11 7 2 5 9 10 8 8 7 6 4 2 1 2 1 2 11 13 7 5 6 5 4 5 5 5 5 4 3 4 2 1 1 1 1 1 1 2 4 4 3 3 3 2 7 9 7 6 6 6 7 9 11 14 15 14 14 16 15 13 14 17 24 32 34 28 28 34 38 36 33 31 29 29
12 12 12 13 14 16 18 21 21 21 23 26 24 21 16 10 6 6 8 9 9 7 5 4 3 1 2 2 2 10 12 6 3 5 4 2 2 2 2 4 3 2 3 2 1 0 0 2 2 2 2 2 3 4 3 2 3 8 10 9 8 8 7 8 9 9 11 15 14 12 13 16 18 20 24 28 31 32 32 32 33 34 32 29 27 28 31
9 10 11 12 13 15 18 19 20 22 24 24 22 23 24 21 14 10 6 5 8 8 6 4 3 0 3 1 1 7 11 5 2 3 3 2 3 2 1 2 2 2 3 2 1 1 1 1 3 2 2 2 3 3 1 2 5 8 9 9 10 10 10 10 10 8 11 16 19 16 17 22 24 24 23 23 25 30 33 32 30 28 26 24 24 27 30
6 7 9 9 10 12 13 15 18 20 20 18 16 18 23 25 24 20 12 6 5 4 3 4 3 1 3 4 2 6 10 6 0 1 1 2 4 3 2 1 3 2 1 2 2 2 2 1 2 1 1 2 3 1 2 4 7 10 10 10 11 12 13 14 15 14 15 19 21 21 22 24 22 19 16 17 21 26 27 27 29 29 25 23 25 28 29
4 4 5 6 7 8 8 9 11 11 10 9 9 12 15 16 18 22 22 19 14 7 2 2 3 2 1 1 3 6 9 6 1 2 2 1 3 3 2 3 3 1 1 2 2 1 1 1 2 1 1 2 1 2 4 3 8 11 11 11 11 11 11 14 17 17 18 22 21 19 21 21 19 16 16 17 21 25 25 25 27 29 27 25 24 26 27
4 3 3 3 3 5 6 8 8 7 5 5 5 7 8 6 6 11 16 18 17 12 6 4 2 1 1 1 3 5 7 4 2 4 3 1 2 3 2 3 1 1 2 3 1 1 2 2 2 2 1 1 1 3 5 3 6 9 9 9 10 10 10 14 17 17 19 22 22 20 20 21 20 19 20 21 22 24 24 23 24 25 25 25 23 24 29
4 5 4 3 3 3 3 4 4 5 5 2 2 3 6 6 5 5 6 7 8 8 7 5 1 1 1 0 2 4 4 2 1 3 2 1 1 2 2 2 1 0 2 2 2 0 2 3 3 3 2 2 1 2 4 3 4 7 7 8 11 13 15 17 19 17 15 17 20 20 20 21 21 21 21 22 23 24 25 25 26 28 29 28 28 31 33
3 3 5 5 4 2 1 1 3 5 3 2 3 3 4 6 5 3 3 3 3 3 4 3 1 1 2 1 3 3 3 2 2 3 2 1 1 2 1 1 0 1 2 1 2 1 2 2 2 2 1 3 3 3 5 4 4 7 11 13 16 18 18 18 19 18 14 15 17 19 18 18 20 19 17 18 21 25 28 29 29 29 31 32 34 34 33
4 3 4 4 3 3 3 3 3 4 2 3 4 3 2 4 3 1 1 3 3 2 1 2 1 1 1 1 2 2 3 3 1 1 1 1 1 0 1 0 0 1 1 2 2 1 2 0 1 1 2 3 4 4 5 4 5 9 14 17 18 19 19 19 20 22 21 21 22 22 21 22 23 21 18 17 18 20 23 27 30 31 31 33 34 34 32
4 3 3 3 4 4 5 5 3 2 2 3 4 3 2 2 2 1 2 3 2 2 1 2 2 3 2 1 1 2 2 2 1 2 1 1 1 1 1 1 1 1 1 3 2 2 3 2 1 1 3 4 4 5 5 5 6 10 16 19 19 20 21 21 23 25 25 24 24 23 24 27 28 27 25 24 23 23 24 27 31 33 33 31 33 35 35
4 5 5 6 5 4 3 4 5 4 2 2 2 2 1 1 2 2 2 1 0 1 1 1 1 2 3 1 1 2 2 2 2 2 2 1 1 1 1 1 2 2 1 3 0 3 3 0 1 3 4 4 4 5 5 5 6 10 16 20 21 21 22 23 25 27 28 25 24 24 26 28 30 30 29 29 28 30 32 34 34 36 36 35 35 35 36
5 5 5 4 3 4 4 3 4 3 2 2 2 2 2 2 2 1 2 2 0 0 1 2 2 2 2 1 1 2 2 2 2 1 1 1 1 2 3 2 1 0 1 0 3 3 0 2 3 4 4 4 4 5 5 7 9 11 15 19 20 21 23 23 24 27 29 28 26 27 28 29 29 32 35 34 32 33 38 42 41 40 40 40 38 36 38
3 3 3 2 2 4 3 2 2 2 2 1 1 1 1 2 1 1 1 2 1 1 1 1 2 2 2 1 1 1 2 1 2 1 0 1 1 2 2 1 2 1 1 2 2 0 2 3 3 4 3 3 5 5 5 7 9 10 13 18 22 22 23 25 26 27 28 30 30 31 31 30 31 34 37 38 36 34 36 41 42 41 41 43 43 40 40
1 2 4 3 3 3 1 1 2 2 2 0 1 3 2 1 2 3 3 1 1 1 2 1 2 1 3 2 1 1 1 1 2 1 1 1 2 1 1 2 1 1 2 1 1 2 2 3 3 3 4 5 6 6 6 8 12 13 13 17 22 24 24 25 26 26 26 28 31 31 30 30 30 32 34 37 38 37 36 37 39 39 40 42 42 44 45
3 2 3 2 1 1 1 1 1 1 1 1 2 4 4 4 4 4 1 1 2 1 1 1 3 2 2 2 1 0 1 2 1 0 0 2 1 2 2 1 1 3 2 1 2 2 3 4 3 3 5 5 5 5 7 10 14 15 13 13 18 23 25 24 25 26 27 29 31 31 29 29 30 31 32 35 38 39 38 38 39 38 37 37 39 43 47
3 2 3 2 0 1 1 1 0 0 1 2 3 3 2 2 2 1 0 1 2 2 0 1 1 1 1 1 1 1 1 2 1 1 1 1 1 2 2 2 0 0 1 1 3 4 4 3 3 4 5 6 5 6 7 10 13 15 14 15 19 23 24 24 25 26 29 31 32 31 30 31 32 33 33 34 36 37 38 39 40 39 38 38 41 45 47
2 1 2 2 1 0 0 1 2 1 1 1 1 2 1 1 2 1 1 3 3 2 2 2 1 1 1 1 1 1 1 1 0 1 0 1 0 2 3 2 2 2 2 4 4 4 3 3 4 5 5 5 5 5 6 9 13 15 16 17 20 22 23 24 25 27 30 31 31 30 31 32 33 33 33 34 35 35 36 39 40 40 39 41 45 49 49
5 3 2 2 2 1 1 2 3 2 2 2 2 1 0 1 2 3 3 4 3 1 1 2 2 1 1 1 1 1 1 1 0 1 2 2 0 0 0 0 2 3 3 4 4 3 3 4 5 5 6 6 6 6 8 10 14 16 17 18 20 21 22 24 25 27 30 30 29 31 33 34 33 33 33 33 33 35 37 36 35 36 38 41 43 44 45
6 4 2 2 2 1 1 2 3 2 4 4 3 2 1 1 3 3 3 4 2 1 2 2 2 1 0 1 2 1 1 1 1 1 1 1 1 1 1 2 4 4 4 4 3 3 4 4 4 5 6 6 7 8 11 14 16 18 19 21 22 22 22 23 25 26 28 30 31 33 35 34 32 33 33 32 33 38 39 36 32 33 38 41 40 39 40
4 3 2 1 1 2 3 3 2 2 3 4 3 3 3 2 2 3 5 4 2 3 2 0 0 2 2 2 1 0 1 0 2 1 1 3 2 3 2 4 5 4 3 4 4 4 4 4 4 5 5 6 7 11 15 17 19 21 22 23 23 22 23 24 25 25 28 31 33 34 35 35 35 35 36 36 36 36 37 37 37 38 42 44 42 39 39
2 2 1 1 2 3 4 3 2 2 3 3 3 4 3 1 3 5 7 5 3 2 0 1 2 3 1 1 1 0 1 1 1 1 2 3 2 3 4 5 4 3 4 5 5 4 4 6 8 8 8 8 11 15 18 19 20 21 22 22 23 24 24 25 24 25 27 30 33 34 36 38 38 37 37 37 34 29 29 34 41 43 43 43 42 40 41
Wind_Direction
163 160 149 134 107 90 87 85 87 89 97 106 91 80 61 70 124 349 355 20 109 73 58 338 27 64 349 37 61 11 63 72 356 6 25 26 30 27 50 183 30 145 213 247 248 329 235 228 278 251 249 253 218 145 87 133 31 54 36 338 329 21 78 6 296 279 282 292 317 60 131 120 88 306 17 46 1 355 270 256 303 302 286 313 322 282 265
166 162 156 142 117 104 101 99 98 92 95 95 85 91 101 106 161 7 16 31 134 80 89 129 60 68 70 49 20 352 55 72 17 13 4 359 91 64 11 277 359 355 193 119 268 324 354 228 287 350 215 249 22 91 221 280 30 52 34 356 340 330 41 23 348 338 329 331 346 342 318 341 321 318 36 28 0 350 312 288 23 312 290 330 316 280 285
146 146 143 133 121 117 111 103 99 87 87 91 86 109 131 69 83 331 20 40 64 94 141 137 118 126 88 60 18 359 43 54 5 103 28 335 166 112 353 340 23 352 17 27 328 337 17 264 320 13 255 260 356 46 333 334 55 46 5 1 331 266 216 108 75 352 324 325 321 311 316 322 313 13 40 21 9 9 352 328 2 314 312 330 304 278 297
123 124 122 122 116 112 107 95 90 79 69 86 92 92 113 69 52 321 3 30 52 73 104 98 106 132 110 69 17 28 59 310 267 145 97 328 128 48 1 356 19 18 38 26 321 310 2 328 340 349 272 275 317 6 343 18 68 27 13 21 57 99 225 203 157 193 262 266 271 286 309 307 309 353 18 10 12 21 26 32 346 308 303 300 290 296 304
114 113 108 107 104 101 100 85 80 81 73 87 86 64 59 96 78 65 359 8 31 38 22 40 77 126 122 99 34 22 14 314 307 107 105 297 73 56 32 41 41 12 25 31 311 300 338 353 332 295 270 275 291 323 22 44 13 4 20 14 79 82 313 258 181 214 248 257 270 287 306 307 318 2 10 360 1 13 29 28 325 307 298 287 304 307 301
110 106 94 93 95 91 83 60 50 100 112 110 99 56 28 76 127 183 123 72 57 44 29 54 69 60 76 103 89 27 20 19 10 317 334 1 16 101 33 16 28 303 319 30 338 327 346 341 308 328 338 319 330 353 25 25 342 348 7 354 98 110 273 247 182 244 262 267 273 282 295 322 52 35 8 353 356 5 8 348 320 321 309 297 303 299 293
97 95 87 86 89 86 81 73 71 83 96 111 100 80 36 83 110 323 27 90 136 104 37 76 70 50 52 73 61 61 61 45 313 269 353 357 342 52 48 325 327 303 237 117 47 316 340 320 299 303 358 332 347 354 337 307 330 10 31 349 110 129 264 238 181 283 283 280 272 267 259 145 74 36 7 356 353 349 344 328 328 333 313 297 296 291 291
87 87 87 85 86 88 88 86 81 82 92 98 84 72 63 133 137 132 63 71 80 39 26 61 67 41 42 65 52 77 96 36 275 223 91 7 332 27 47 296 307 306 182 153 231 234 195 239 260 201 21 323 259 233 267 269 334 6 46 333 341 24 299 246 85 325 300 294 288 302 307 133 96 34 13 7 355 345 342 335 333 330 313 303 299 292 294
83 82 81 78 77 77 76 85 94 94 100 96 76 60 78 97 117 130 110 65 7 15 20 59 79 35 11 78 145 175 176 195 202 220 189 174 229 302 272 286 305 352 174 220 254 243 203 221 240 210 208 262 219 195 218 182 345 354 15 337 359 21 315 336 43 349 308 313 330 331 348 115 99 33 17 7 354 343 334 327 325 322 314 312 308 299 305
81 79 78 76 74 74 73 79 89 97 102 97 86 89 105 95 90 104 103 76 360 11 15 37 78 63 331 173 175 240 227 216 168 99 237 236 234 215 200 227 301 346 325 301 274 250 221 228 248 220 193 228 219 237 229 137 64 326 340 340 4 70 26 335 11 337 304 315 328 326 333 75 33 19 25 5 349 336 323 317 320 318 315 316 312 305 315
82 80 79 77 76 74 73 75 78 83 93 99 109 133 146 127 113 80 79 75 2 357 42 38 57 98 238 182 137 79 92 215 196 116 70 284 270 181 156 150 335 295 274 283 329 198 183 132 89 92 96 80 324 256 177 145 199 201 173 115 346 70 75 318 285 282 293 309 329 330 331 342 305 173 72 7 349 335 324 320 327 326 323 322 316 318 325
79 78 76 74 73 72 70 70 69 70 77 95 113 127 142 132 113 85 86 97 354 349 57 56 20 189 243 29 91 181 152 137 236 204 299 274 260 109 138 140 17 293 254 281 5 107 96 71 84 100 98 102 77 63 82 252 256 223 180 181 115 53 48 306 194 197 281 310 354 343 330 338 227 191 39 1 349 339 327 321 328 329 324 326 328 327 328
75 74 73 71 69 68 67 66 66 67 73 87 102 111 122 117 100 86 96 105 45 340 80 84 321 331 45 37 72 210 277 318 330 326 291 270 272 280 229 177 193 283 317 351 357 40 54 2 8 34 46 54 48 56 71 292 289 269 210 205 170 100 84 351 229 222 312 343 1 335 314 295 220 259 351 356 346 342 329 321 326 329 324 335 335 325 320
73 72 71 70 68 67 66 66 66 69 73 80 90 102 114 109 98 108 113 102 92 273 120 88 355 357 32 305 57 28 334 327 340 312 260 268 257 254 249 214 220 309 341 358 12 32 46 20 20 360 340 6 18 6 353 14 47 76 256 229 162 124 101 25 342 31 24 332 311 302 294 273 347 344 354 346 335 338 333 321 322 338 349 342 331 318 315
73 72 71 70 69 67 65 65 65 69 71 71 81 97 102 89 94 119 120 110 116 209 20 97 174 156 91 327 81 48 350 345 1 301 289 311 251 247 248 234 283 333 360 44 42 37 56 62 38 1 345 7 359 306 311 5 30 22 3 96 113 85 86 76 359 2 39 327 309 316 314 304 334 359 339 332 328 336 336 317 309 343 355 339 327 319 317
72 72 72 71 69 67 65 63 63 66 68 69 80 90 88 80 88 101 102 104 111 98 352 215 171 141 118 114 133 95 53 356 356 329 327 328 295 281 280 260 303 348 43 60 61 62 58 57 62 9 330 314 298 297 320 347 332 354 45 79 77 46 44 98 75 10 10 343 313 307 307 305 338 338 332 337 338 338 331 305 296 341 345 334 326 319 316
71 71 71 72 71 68 65 62 62 64 64 66 75 81 81 79 86 95 92 86 91 101 219 193 131 95 89 102 26 49 106 110 60 32 314 307 301 305 313 334 354 23 71 53 30 58 65 56 60 29 298 250 282 318 316 344 333 328 9 46 48 30 12 49 56 2 329 324 298 286 279 265 305 330 341 346 341 337 330 311 314 338 335 329 323 316 314
69 69 69 70 70 68 65 61 59 60 61 62 69 74 75 72 72 92 99 91 90 107 250 215 129 92 77 137 163 200 139 36 15 122 283 307 318 312 320 350 357 338 52 64 38 57 72 52 68 80 261 262 350 338 312 340 335 329 345 360 21 20 2 34 55 332 318 313 298 299 288 248 320 339 348 350 340 337 334 318 318 329 326 320 316 312 311
68 68 67 68 67 65 64 59 54 54 55 56 67 71 68 66 78 96 97 83 72 108 162 281 174 151 279 181 176 210 109 77 78 106 38 345 328 338 345 9 17 336 21 66 68 82 79 2 358 122 181 296 332 38 344 342 346 346 349 356 21 9 342 337 347 325 319 313 305 304 289 339 357 344 344 353 346 333 321 310 310 317 316 311 310 309 307
67 66 66 66 66 64 63 61 56 55 56 60 75 75 66 62 78 97 104 107 103 91 59 356 51 113 84 78 116 136 64 58 68 112 117 267 284 55 37 348 329 1 17 41 48 55 75 350 312 123 147 276 281 107 348 336 22 25 349 358 37 343 322 331 331 321 314 313 322 315 299 339 358 347 341 355 343 311 300 305 306 307 307 307 307 306 306
67 66 65 65 66 64 63 62 58 58 62 66 82 81 72 69 78 98 119 120 114 103 77 73 89 98 87 72 79 91 102 107 109 140 162 248 292 67 82 254 261 24 36 91 75 352 43 153 279 340 323 265 290 10 331 343 26 22 36 90 118 155 55 334 303 330 29 320 312 303 294 311 342 346 327 318 308 297 301 306 305 304 306 306 306 308 310
68 67 65 65 65 64 63 63 61 62 66 67 78 86 87 88 92 102 109 102 90 89 124 118 96 84 76 63 55 51 54 89 145 165 152 257 320 56 101 136 149 172 186 121 73 343 310 147 121 35 5 325 341 348 11 74 355 318 17 65 123 159 98 287 267 270 289 263 262 272 281 298 325 329 312 303 299 300 303 302 300 302 304 303 307 312 312
67 67 65 64 65 62 61 63 61 61 67 65 70 90 103 105 102 106 106 96 87 90 108 108 94 73 54 39 36 34 28 27 24 181 149 95 15 33 66 78 106 196 202 83 98 184 179 183 137 91 85 228 175 9 17 50 316 299 10 37 252 242 51 344 251 286 290 272 269 281 294 313 318 313 305 300 299 303 303 300 300 302 302 302 305 309 310
64 65 64 63 63 61 60 62 61 62 67 68 73 95 109 111 107 106 103 96 92 95 84 69 68 61 20 9 20 22 19 23 32 106 139 99 55 12 341 350 97 43 349 309 160 127 114 150 123 84 61 234 141 72 31 17 341 334 23 347 292 270 303 286 260 312 312 305 304 309 315 315 307 301 296 296 302 309 312 311 310 308 308 308 304 302 305
61 61 61 59 59 60 59 60 62 65 70 75 84 99 108 109 109 110 106 99 106 114 96 49 19 21 357 5 20 18 14 21 32 49 68 98 82 49 53 131 102 81 110 148 118 87 71 88 121 96 95 243 301 28 109 147 137 132 70 5 320 292 312 323 318 312 301 295 304 313 314 309 305 307 310 311 317 321 320 317 315 313 312 312 309 307 307
60 59 59 58 58 60 63 66 70 72 75 81 87 95 100 99 99 106 108 105 100 91 94 97 316 352 57 42 29 20 14 18 29 38 40 45 61 86 130 140 108 95 99 87 86 99 99 95 102 104 112 92 45 85 120 104 104 114 74 16 301 296 324 328 318 312 297 296 315 324 322 320 325 326 322 320 321 321 319 318 317 317 317 315 315 317 317
60 60 59 59 60 64 70 75 77 77 78 79 79 84 91 91 94 110 118 113 90 57 99 140 271 307 87 68 36 21 15 16 27 32 32 47 64 74 117 130 116 91 73 55 53 82 84 68 78 137 179 202 64 93 114 107 105 103 43 340 314 326 336 329 323 326 320 316 324 326 319 317 321 321 317 316 317 318 317 317 317 318 316 315 317 319 319
60 61 60 57 55 58 71 84 87 84 81 78 76 77 75 70 67 79 114 159 129 114 127 153 169 110 99 72 30 19 14 11 21 28 33 51 65 68 83 98 99 82 70 74 80 74 67 69 93 152 181 124 72 69 39 37 72 72 319 300 341 333 325 319 316 313 307 306 311 313 306 300 303 307 311 311 312 313 313 312 311 311 312 315 318 318 319
57 58 58 55 49 43 39 60 119 113 95 82 78 75 69 61 58 63 71 88 102 105 101 83 95 84 54 58 25 14 12 11 14 25 43 62 64 64 68 72 78 87 91 94 97 89 88 128 156 196 297 114 123 98 49 36 39 350 257 251 277 274 266 276 287 292 297 301 302 304 300 294 298 303 304 305 309 311 309 309 310 309 312 315 317 318 321
57 55 53 50 47 42 33 28 33 170 162 134 96 70 60 50 47 57 70 83 94 100 99 91 100 51 354 93 36 9 10 17 23 34 57 69 61 58 66 67 63 68 71 69 87 112 150 323 15 319 317 16 104 116 96 96 225 271 264 272 293 290 272 269 271 278 290 295 298 300 297 290 295 300 302 309 317 318 314 312 313 313 314 315 318 322 324
62 60 55 50 48 47 42 36 38 64 157 169 133 56 64 35 22 40 58 68 75 88 96 95 97 351 349 81 37 10 9 16 33 41 59 65 52 50 65 66 50 51 61 64 82 106 123 36 32 354 337 28 79 115 127 116 257 290 289 285 287 282 273 272 271 271 279 287 295 300 299 297 302 307 310 317 319 318 314 312 315 316 316 316 319 322 323
67 66 62 57 55 55 57 56 58 69 87 89 80 77 86 55 359 27 53 64 69 83 91 83 76 5 337 284 349 6 7 15 40 40 45 56 45 44 54 57 57 67 76 90 97 60 87 141 88 28 355 35 71 107 107 82 351 307 309 308 300 286 275 279 286 284 285 293 300 303 304 307 310 311 311 312 314 315 315 315 318 320 319 318 321 322 322
71 70 68 68 66 65 69 69 70 75 80 78 76 73 67 55 32 38 59 63 59 64 76 87 105 86 314 255 322 6 10 11 21 25 30 41 41 43 37 35 50 64 47 62 125 92 60 141 107 53 359 31 75 98 91 55 322 309 314 314 309 305 295 290 290 288 295 305 308 305 304 306 308 310 311 311 315 320 321 321 323 324 324 324 325 326 327
72 74 76 80 79 79 80 79 80 83 82 76 69 63 60 58 52 44 50 71 66 59 56 70 108 243 331 336 339 11 17 20 345 3 8 347 8 55 113 347 16 52 34 32 96 71 2 65 89 63 345 5 52 78 94 298 305 314 319 317 317 320 317 314 315 315 317 318 315 310 308 308 310 315 317 317 320 325 326 327 330 330 329 328 328 328 328
70 76 81 87 87 86 87 84 82 81 76 70 65 62 61 61 56 52 55 70 68 56 31 41 77 99 10 6 299 337 9 26 14 327 318 308 356 48 117 17 22 46 10 6 76 71 17 61 101 86 332 3 38 72 237 285 317 328 330 327 329 332 330 329 330 329 326 323 318 315 317 318 317 321 325 325 326 329 331 332 334 334 331 329 328 328 329
61 82 89 92 90 89 86 73 67 68 68 69 70 63 60 61 60 59 63 66 67 79 134 55 63 106 70 359 271 322 360 15 318 314 324 312 353 16 68 71 53 40 7 36 64 52 12 83 108 58 2 42 80 216 233 290 331 332 331 329 330 333 330 325 325 324 322 322 320 320 325 328 327 328 332 332 331 332 333 334 335 335 331 328 328 329 328
50 70 106 128 99 77 64 48 46 63 83 84 71 52 44 52 60 53 53 55 53 58 77 89 95 172 168 212 267 329 353 350 314 342 345 305 319 340 39 68 57 288 15 31 27 345 6 34 77 87 131 155 168 224 235 281 328 325 324 324 323 326 325 321 323 324 323 324 328 332 334 334 333 332 334 333 332 332 333 335 335 333 328 326 327 328 327
49 59 70 94 85 64 43 22 45 95 106 75 36 31 23 28 44 39 27 30 34 38 54 76 118 255 37 278 280 330 354 336 344 3 341 264 302 342 31 73 114 226 23 339 263 225 40 24 52 98 205 256 304 264 258 280 305 302 304 312 317 321 323 322 325 328 328 327 330 333 334 333 331 330 331 331 330 330 331 331 332 331 328 328 329 328 328
51 54 50 60 73 91 97 56 90 119 117 30 29 48 17 14 35 32 345 357 16 10 27 57 137 188 81 16 300 332 30 38 7 357 343 311 335 338 353 52 32 40 46 307 262 62 56 355 11 75 225 287 321 302 285 295 302 304 312 318 319 321 321 321 322 325 322 318 318 319 321 324 324 323 325 327 327 327 327 329 330 331 330 329 329 329 330
51 59 50 57 76 89 89 95 115 135 122 22 32 53 34 20 44 69 353 24 30 343 357 64 147 229 96 61 287 306 22 37 18 317 307 288 255 92 65 61 320 45 64 255 271 45 90 115 5 79 201 260 289 289 290 302 306 311 320 322 320 319 320 319 320 321 320 318 317 317 320 322 321 320 322 326 326 325 325 327 329 329 328 329 331 332 332
38 57 70 96 111 96 82 84 91 97 76 40 35 46 44 14 10 26 49 47 17 292 289 63 36 330 344 61 193 254 328 3 84 129 122 300 304 68 52 307 331 71 177 243 265 64 88 91 359 247 223 243 272 283 297 312 316 319 323 323 322 323 325 324 324 327 328 327 324 324 327 328 327 326 328 330 328 324 321 323 326 327 328 330 333 333 332
65 89 99 106 110 101 76 59 46 38 50 63 46 32 22 356 357 16 35 61 263 279 309 47 37 283 279 283 214 223 272 347 30 86 79 323 313 102 91 320 11 63 221 241 318 58 65 44 269 256 247 253 271 288 309 322 319 318 321 322 324 328 329 328 328 329 330 329 326 325 329 330 329 329 330 331 330 327 325 326 327 328 329 331 332 332 332
88 101 106 103 76 44 29 26 27 34 51 53 42 23 359 1 20 22 325 295 267 51 316 310 326 319 308 318 225 234 260 335 23 85 101 329 355 61 54 15 10 101 234 6 60 63 125 213 218 237 253 272 289 303 319 321 315 313 316 320 324 328 329 329 328 328 329 331 329 329 330 332 331 331 332 333 334 333 331 331 331 331 330 330 331 332 334
103 79 72 71 32 22 18 353 1 41 55 33 62 109 36 345 339 196 275 296 331 49 305 310 13 359 314 316 38 301 287 3 64 83 334 342 25 60 62 269 251 262 346 28 48 299 233 224 226 242 261 295 310 314 319 319 317 318 320 323 328 332 333 332 332 331 332 332 332 332 333 333 333 333 334 335 335 335 331 331 332 334 333 332 330 331 334
107 21 36 37 1 357 18 321 345 36 61 33 164 155 160 206 213 211 229 233 112 54 350 21 93 99 272 277 40 73 293 359 30 354 310 17 32 28 237 240 277 27 41 22 340 303 266 246 253 276 300 313 316 318 321 320 322 324 324 325 331 335 335 334 334 333 332 331 332 332 333 333 333 334 333 332 334 334 333 332 333 334 334 332 330 330 333
88 67 73 82 344 328 76 86 2 32 130 206 197 175 176 189 198 206 225 99 101 83 331 133 114 104 291 295 338 64 19 35 34 318 83 75 45 265 241 214 41 44 46 359 305 270 244 243 260 291 305 310 311 312 314 317 322 326 327 326 329 331 332 332 332 331 330 331 331 331 331 332 332 332 331 331 333 334 334 333 333 334 334 332 330 328 330
84 61 82 110 349 346 49 109 194 171 177 208 205 198 209 235 239 245 241 147 153 154 143 106 113 153 266 307 358 326 355 48 36 289 331 98 225 290 11 48 355 204 140 242 257 246 240 258 282 293 300 307 311 313 315 318 323 327 328 327 327 328 329 331 331 331 331 331 331 330 331 332 332 331 330 330 330 331 333 333 333 334 335 333 331 329 330
98 54 67 121 188 283 57 134 134 88 37 327 243 233 261 316 317 297 191 167 155 129 88 66 49 352 335 21 36 276 302 21 29 276 6 81 60 335 13 17 300 266 201 204 227 237 247 272 283 288 297 305 306 305 310 317 322 327 330 330 327 327 329 330 331 331 330 330 330 329 330 331 331 331 330 328 327 329 333 334 333 334 336 336 334 332 332
82 81 76 102 137 172 171 128 106 55 342 313 291 295 20 303 276 256 183 151 144 143 150 136 120 130 281 332 41 64 317 322 210 308 1 26 39 231 130 297 292 287 251 218 220 243 265 274 286 294 299 304 306 304 306 313 320 325 328 326 325 326 327 328 329 329 329 329 329 329 329 331 332 331 330 328 326 327 329 331 332 333 335 336 334 331 329
61 70 81 87 89 119 169 119 86 1 313 300 291 276 192 216 264 247 173 148 127 53 70 83 80 91 258 359 32 26 293 258 143 81 2 278 188 156 158 234 235 236 234 231 232 248 263 275 290 297 298 299 300 302 308 315 320 324 325 325 325 326 327 327 328 328 328 328 329 330 331 332 332 330 328 327 325 324 326 330 333 335 335 335 334 331 330
39 57 75 80 94 142 157 142 135 206 241 245 242 221 189 185 236 210 170 145 86 46 48 57 61 56 41 15 10 318 269 353 80 72 267 241 181 139 187 237 235 223 227 249 256 256 266 278 283 283 289 295 297 301 308 315 318 321 323 325 326 327 329 329 330 330 329 329 331 332 331 331 331 330 328 327 327 328 329 331 335 338 337 336 335 334 333
51 73 74 22 56 118 131 119 125 187 207 217 212 192 178 194 202 176 156 129 83 62 175 173 92 72 37 269 228 115 9 22 38 294 250 233 191 172 193 218 226 211 215 248 272 278 272 275 277 276 278 288 298 304 309 314 317 320 324 327 328 330 330 329 329 329 329 330 332 332 331 331 331 332 331 330 332 333 332 330 332 335 336 334 334 335 335